Regional Weather Roundup
Issued by NWS

Home | Current Version | Previous Version | Graphics & Text | Print | Product List | Glossary On
Versions: 1 2 3 4 5 6 7 8 9 10 11 12 13 14 15 16 17 18 19 20 21 22 23 24 25 26 27 28 29 30 31 32 33 34 35 36 37 38 39 40 41 42 43 44 45 46 47 48 49 50
000
ASUS43 KOAX 071802
RWRNE

WEATHER ROUNDUP FOR NEBRASKA
NATIONAL WEATHER SERVICE OMAHA NE
1200 PM CST WED DEC 07 2016

NOTES: SATELLITE DATA IS BEING USED TO AUGMENT CLOUD COVER ABOVE
       12000 FEET.
       "FAIR" INDICATES FEW OR NO CLOUDS BELOW 12,000 FEET WITH NO
       SIGNIFICANT WEATHER AND/OR OBSTRUCTIONS TO VISIBILITY.

  * THESE STATIONS DO NOT REPORT WEATHER SUCH AS RAIN...SNOW OR FOG.

NEZ001>004-019>022-054>056-071900-
NEBRASKA PANHANDLE

CITY           SKY/WX    TMP DP  RH WIND       PRES   REMARKS
SCOTTSBLUFF    CLOUDY    12   1  61 NW20      30.30S WCI  -6
6HR MIN TEMP:   6; 6HR MAX TEMP:  12; 6HR PCP:  0.03;

ALLIANCE       CLOUDY    11   3  70 NW10      30.27S WCI  -3
6HR MIN TEMP:   6; 6HR MAX TEMP:  12; 6HR PCP: TRACE;

CHADRON        CLOUDY    10  -3  55 NW21      30.35S WCI  -9
6HR MIN TEMP:   6; 6HR MAX TEMP:  10;

KIMBALL        CLOUDY     8   3  80 N16       30.22S HAZE    WCI -10
SIDNEY         LGT SNOW   9   2  73 N18       30.26S WCI -10
6HR MIN TEMP:   8; 6HR MAX TEMP:  10; 6HR PCP: TRACE;

$$

NEZ057>060-069>072-079>082-071900-
SOUTHWEST NEBRASKA

CITY           SKY/WX    TMP DP  RH WIND       PRES   REMARKS
NORTH PLATTE   LGT SNOW  16   7  67 NW16      30.33F WCI   1
6HR MIN TEMP:  12; 6HR MAX TEMP:  17; 6HR PCP:  0.01;

IMPERIAL       CLOUDY    13   7  77 N14       30.32R HAZE    WCI  -2
6HR MIN TEMP:  11; 6HR MAX TEMP:  14; 6HR PCP: TRACE;

LEXINGTON      CLOUDY    19  10  67 NW14      30.34S HAZE    WCI   5
MCCOOK         LGT SNOW  16  10  77 N12       30.35S WCI   3
6HR MIN TEMP:  13; 6HR MAX TEMP:  17; 6HR PCP: TRACE;

$$

NEZ005>010-023>029-035>040-094-071900-
NORTH CENTRAL NEBRASKA

CITY           SKY/WX    TMP DP  RH WIND       PRES   REMARKS
VALENTINE      SUNNY     12  -2  53 NW18G30   30.32F WCI  -6
6HR MIN TEMP:   6; 6HR MAX TEMP:  12;

AINSWORTH      CLOUDY    11   0  60 NW16G23   30.32S WCI  -5
BROKEN BOW     PTSUNNY   18   0  45 NW21G28   30.31F WCI   1
6HR MIN TEMP:  12; 6HR MAX TEMP:  18;

ORD            CLOUDY    16  -1  47 NW20      30.33S WCI  -1
6HR MIN TEMP:  12; 6HR MAX TEMP:  17;

$$

NEZ041-046>049-061>064-073>077-083>087-071900-
SOUTH CENTRAL NEBRASKA

CITY           SKY/WX    TMP DP  RH WIND       PRES   REMARKS
GRAND ISLAND   CLOUDY    19   4  51 NW16      30.34F WCI   4
6HR MIN TEMP:  14; 6HR MAX TEMP:  19;

AURORA         PTSUNNY   20   5  51 NW14      30.33F WCI   7
HASTINGS       CLOUDY    21   4  47 NW13      30.34F WCI   9
6HR MIN TEMP:  16; 6HR MAX TEMP:  21;

HEBRON         CLOUDY    22   8  53 N8        30.36S WCI  13
HOLDREGE       CLOUDY    19   7  60 N13       30.33F WCI   5
KEARNEY *      CLOUDY    19   1  45 N14       30.33F WCI   6
YORK           PTSUNNY   19   7  58 NW14      30.33F WCI   6
$$

NEZ011>018-030>034-042>045-071900-
NORTHEAST NEBRASKA

CITY           SKY/WX    TMP DP  RH WIND       PRES   REMARKS
NORFOLK        CLOUDY    17   2  51 NW17      30.29F WCI   1
6HR MIN TEMP:  12; 6HR MAX TEMP:  17;

ALBION         PTSUNNY   17   2  50 NW15G21   30.31F WCI   3
BLAIR          CLOUDY    20   9  63 W14G20    30.29F WCI   7
FREMONT        CLOUDY    21   8  55 W16       30.32F WCI   7
TEKAMAH        MOSUNNY   22   9  57 W17       30.31F WCI   8
6HR MIN TEMP:  15; 6HR MAX TEMP:  22;

WAYNE          PTSUNNY   18   5  58 NW17G26   30.29F WCI   2
$$

NEZ050>053-065>068-078-088>093-071900-
SOUTHEAST NEBRASKA

CITY           SKY/WX    TMP DP  RH WIND       PRES   REMARKS
LINCOLN        CLOUDY    22   6  50 NW16      30.36F WCI   8
6HR MIN TEMP:  18; 6HR MAX TEMP:  23;

OMAHA EPPLEY   CLOUDY    21   8  57 NW13      30.32F WCI   9
6HR MIN TEMP:  16; 6HR MAX TEMP:  21;

BEATRICE       CLOUDY    24   9  53 NW13      30.34F WCI  12
FALLS CITY     CLOUDY    25  10  53 NW12      30.33F WCI  14
6HR MIN TEMP:  22; 6HR MAX TEMP:  25;

NEBRASKA CITY  CLOUDY    22   6  49 NW15      30.33S WCI   9
$$

NEZ044-045-051>053-067-071900-
OMAHA AREA

CITY           SKY/WX    TMP DP  RH WIND       PRES   REMARKS
OMAHA EPPLEY   CLOUDY    21   8  57 NW13      30.32F WCI   9
6HR MIN TEMP:  16; 6HR MAX TEMP:  21;

BLAIR          CLOUDY    20   9  63 W14G20    30.29F WCI   7
FREMONT        CLOUDY    21   8  55 W16       30.32F WCI   7
OFFUTT AFB     PTSUNNY   21   8  58 NW15      30.32F WCI   8
WAHOO          FAIR      22   7  52 NW15      30.33F WCI   8
$$



USA.gov is the U.S. government's official web portal to all federal, state and local government web resources and services.